Kimball, NE

5:12 AM MDT on October 22, 2017 (GMT -0600)
Kimball Municipal-Arraj

Weather History for KIBM - December, 2013

Change the Weather History Date:

Saturday, December 28, 2013

  Actual Average (KSNY) Record (KSNY)
Temperature  
Mean Temperature 34 °F -  
Max Temperature 52 °F 37 °F 72 °F (1980)
Min Temperature 16 °F 10 °F -8 °F (1988)
Degree Days  
Heating Degree Days 31    
Moisture  
Dew Point 18 °F    
Average Humidity 55    
Maximum Humidity 75    
Minimum Humidity 21    
Precipitation  
Precipitation 0.00 in - - ()
Sea Level Pressure  
Sea Level Pressure 29.97 in    
Wind  
Wind Speed 15 mph (NW)    
Max Wind Speed 30 mph    
Max Gust Speed 38 mph    
Visibility 10 miles    
Events      
Averages and records for this station are not official NWS values.
T = Trace of Precipitation, MM = Missing Value Source: NWS Daily Summary

Daily Weather History Graph

Daily Weather History Graph

Search for Another Location

Airport or City:

Trip Planner

Search our weather history database for the weather conditions in past years. The results will help you decide how hot, cold, wet, or windy it might be!

Date:

Astronomy

Dec. 28, 2013 Rise Set
Actual Time 8:19 AM CST 5:33 PM CST
Civil Twilight 7:48 AM CST 6:04 PM CST
Nautical Twilight 7:13 AM CST 6:39 PM CST
Astronomical Twilight 6:40 AM CST 7:12 PM CST
Moon 3:57 AM CST (12/28) 2:27 PM CST (12/28)
Length of Visible Light 10h 16m
Length of Day
9h 14m
Waning Crescent, 19% of the Moon is Illuminated
Dec 28
Waning Crescent
Jan 1
New
Jan 7
First Quarter
Jan 15
Full
Jan 23
Last Quarter

Hourly Weather History & Observations

Time (CST) Temp. Windchill Dew Point Humidity Pressure Visibility Wind Dir Wind Speed Gust Speed Precip Events Conditions
12:15 AM 28.9 °F 21.1 °F 20.3 °F 70% 30.02 in 10.0 mi WSW 8.1 mph - N/A   Clear
12:35 AM 30.2 °F 22.6 °F 20.8 °F 68% 30.02 in 10.0 mi WSW 8.1 mph - N/A   Clear
12:55 AM 30.6 °F 21.8 °F 20.8 °F 67% 30.01 in 10.0 mi WSW 10.4 mph - N/A   Clear
1:15 AM 29.3 °F 22.3 °F 20.8 °F 71% 29.99 in 10.0 mi West 6.9 mph - N/A   Clear
1:35 AM 30.0 °F 21.7 °F 20.7 °F 68% 29.98 in 10.0 mi West 9.2 mph - N/A   Clear
1:55 AM 31.6 °F 23.1 °F 21.0 °F 65% 29.97 in 10.0 mi West 10.4 mph - N/A   Clear
2:15 AM 29.7 °F 20.7 °F 20.3 °F 68% 29.96 in 10.0 mi West 10.4 mph - N/A   Clear
2:35 AM 30.4 °F 21.5 °F 20.3 °F 66% 29.95 in 10.0 mi West 10.4 mph - N/A   Clear
2:55 AM 30.0 °F 21.7 °F 20.3 °F 67% 29.94 in 10.0 mi West 9.2 mph - N/A   Clear
3:15 AM 27.5 °F 20.2 °F 19.8 °F 73% 29.94 in 10.0 mi WSW 6.9 mph - N/A   Clear
3:35 AM 27.3 °F 17.7 °F 19.9 °F 74% 29.92 in 10.0 mi WSW 10.4 mph - N/A   Clear
3:55 AM 29.8 °F 20.9 °F 20.5 °F 68% 29.92 in 10.0 mi West 10.4 mph - N/A   Clear
4:15 AM 28.2 °F 19.5 °F 19.9 °F 71% 29.92 in 10.0 mi West 9.2 mph - N/A   Clear
4:35 AM 29.1 °F 21.3 °F 20.3 °F 70% 29.92 in 10.0 mi West 8.1 mph - N/A   Clear
5:00 AM 27.7 °F 18.2 °F 20.1 °F 73% 29.90 in 10.0 mi WSW 10.4 mph - N/A   Clear
5:15 AM 26.4 °F 19.8 °F 19.4 °F 75% 29.90 in 10.0 mi West 5.8 mph - N/A   Clear
5:35 AM 27.9 °F 19.1 °F 20.3 °F 73% 29.89 in 10.0 mi West 9.2 mph - N/A   Clear
5:55 AM 29.8 °F 19.8 °F 21.0 °F 70% 29.88 in 10.0 mi West 12.7 mph - N/A   Clear
6:15 AM 33.6 °F 25.0 °F 21.6 °F 61% 29.87 in 10.0 mi West 11.5 mph - N/A   Clear
6:35 AM 34.3 °F 25.5 °F 21.7 °F 60% 29.87 in 10.0 mi West 12.7 mph - N/A   Clear
6:55 AM 35.6 °F 27.5 °F 21.6 °F 57% 29.87 in 10.0 mi WSW 11.5 mph - N/A   Clear
7:15 AM 36.0 °F 27.1 °F 21.2 °F 55% 29.86 in 10.0 mi West 13.8 mph - N/A   Clear
7:35 AM 39.0 °F 30.3 °F 21.7 °F 50% 29.86 in 10.0 mi West 16.1 mph - N/A   Clear
7:55 AM 41.4 °F 34.0 °F 21.2 °F 45% 29.86 in 10.0 mi West 13.8 mph - N/A   Clear
8:15 AM 39.9 °F 32.9 °F 21.0 °F 47% 29.85 in 10.0 mi WSW 11.5 mph - N/A   Clear
8:35 AM 38.1 °F 31.2 °F 21.0 °F 50% 29.85 in 10.0 mi WSW 10.4 mph - N/A   Clear
8:55 AM 39.7 °F 32.7 °F 21.2 °F 48% 29.86 in 10.0 mi West 11.5 mph - N/A   Clear
9:15 AM 40.8 °F 35.0 °F 21.4 °F 46% 29.86 in 10.0 mi West 9.2 mph - N/A   Clear
9:35 AM 40.1 °F 34.7 °F 22.8 °F 50% 29.86 in 10.0 mi WNW 8.1 mph - N/A   Clear
9:55 AM 45.5 °F 39.6 °F 22.1 °F 40% 29.86 in 10.0 mi West 12.7 mph - N/A   Clear
10:15 AM 46.9 °F - 21.2 °F 36% 29.87 in 10.0 mi West 15.0 mph - N/A   Clear
10:35 AM 47.3 °F - 21.4 °F 36% 29.87 in 10.0 mi WNW 15.0 mph - N/A   Clear
10:55 AM 48.9 °F - 21.4 °F 34% 29.88 in 10.0 mi WNW 17.3 mph - N/A   Clear
11:15 AM 50.0 °F - 20.1 °F 31% 29.89 in 10.0 mi WNW 17.3 mph 24.2 mph N/A   Clear
11:35 AM 52.3 °F - 16.9 °F 25% 29.88 in 10.0 mi NW 23.0 mph 34.5 mph N/A   Clear
11:55 AM 52.0 °F - 15.3 °F 23% 29.88 in 10.0 mi NW 21.9 mph 29.9 mph N/A   Clear
12:15 PM 52.7 °F - 13.5 °F 21% 29.88 in 10.0 mi NW 26.5 mph 33.4 mph N/A   Clear
12:35 PM 52.3 °F - 13.5 °F 21% 29.89 in 10.0 mi NNW 28.8 mph 35.7 mph N/A   Clear
12:55 PM 51.6 °F - 13.8 °F 22% 29.89 in 10.0 mi NNW 28.8 mph 35.7 mph N/A   Clear
1:15 PM 51.3 °F - 15.1 °F 24% 29.89 in 10.0 mi NNW 25.3 mph 34.5 mph N/A   Clear
1:35 PM 51.3 °F - 15.4 °F 24% 29.89 in 10.0 mi North 24.2 mph 33.4 mph N/A   Clear
1:55 PM 50.9 °F - 16.2 °F 25% 29.90 in 10.0 mi NNE 23.0 mph - N/A   Clear
2:15 PM 49.5 °F - 17.2 °F 28% 29.90 in 10.0 mi NNE 24.2 mph 27.6 mph N/A   Clear
2:35 PM 47.7 °F - 19.8 °F 33% 29.91 in 10.0 mi North 28.8 mph 35.7 mph N/A   Clear
2:55 PM 45.3 °F 35.9 °F 21.2 °F 38% 29.91 in 10.0 mi North 28.8 mph 35.7 mph N/A   Clear
3:15 PM 43.7 °F 33.5 °F 22.3 °F 43% 29.93 in 10.0 mi North 29.9 mph 35.7 mph N/A   Clear
3:35 PM 42.1 °F 31.9 °F 23.0 °F 47% 29.94 in 10.0 mi North 26.5 mph 35.7 mph N/A   Clear
3:55 PM 40.1 °F 28.6 °F 23.0 °F 51% 29.96 in 10.0 mi North 29.9 mph 36.8 mph N/A   Clear
4:15 PM 37.8 °F 25.4 °F 23.0 °F 55% 29.98 in 10.0 mi North 29.9 mph 35.7 mph N/A   Clear
4:35 PM 36.3 °F 24.2 °F 23.0 °F 59% 29.99 in 10.0 mi North 26.5 mph 34.5 mph N/A   Clear
4:55 PM 34.9 °F 22.2 °F 23.0 °F 62% 30.00 in 10.0 mi North 26.5 mph 32.2 mph N/A   Clear
5:15 PM 33.3 °F 20.9 °F 22.6 °F 65% 30.00 in 10.0 mi North 23.0 mph 29.9 mph N/A   Clear
5:35 PM 32.2 °F 19.1 °F 20.1 °F 61% 30.01 in 10.0 mi North 24.2 mph 32.2 mph N/A   Clear
5:55 PM 31.6 °F 18.7 °F 19.0 °F 60% 30.02 in 10.0 mi North 23.0 mph 29.9 mph N/A   Clear
6:15 PM 30.2 °F 16.8 °F 19.4 °F 64% 30.03 in 10.0 mi North 23.0 mph 28.8 mph N/A   Clear
6:35 PM 29.3 °F 15.0 °F 18.5 °F 64% 30.04 in 10.0 mi North 25.3 mph 33.4 mph N/A   Clear
6:55 PM 28.2 °F 12.8 °F 18.5 °F 67% 30.05 in 10.0 mi North 28.8 mph 34.5 mph N/A   Clear
7:15 PM 27.0 °F 11.9 °F 16.7 °F 65% 30.06 in 10.0 mi North 25.3 mph 38.0 mph N/A   Scattered Clouds
7:35 PM 26.4 °F 12.8 °F 14.4 °F 60% 30.08 in 10.0 mi NNW 19.6 mph 34.5 mph N/A   Mostly Cloudy
7:55 PM 25.7 °F 11.5 °F 14.7 °F 63% 30.10 in 10.0 mi NNW 20.7 mph 28.8 mph N/A   Overcast
8:15 PM 24.4 °F 9.9 °F 12.2 °F 60% 30.10 in 10.0 mi NNW 20.7 mph 28.8 mph N/A   Overcast
8:35 PM 23.7 °F 8.9 °F 11.8 °F 61% 30.12 in 10.0 mi NNW 20.7 mph 26.5 mph N/A   Overcast
8:55 PM 22.6 °F 6.4 °F 11.1 °F 61% 30.12 in 10.0 mi North 24.2 mph 32.2 mph N/A   Overcast
9:15 PM 21.4 °F 4.7 °F 11.3 °F 65% 30.13 in 10.0 mi North 24.2 mph 29.9 mph N/A   Overcast
9:35 PM 20.8 °F 4.0 °F 11.1 °F 66% 30.13 in 10.0 mi NNW 24.2 mph 29.9 mph N/A   Overcast
9:55 PM 20.3 °F 3.3 °F 9.5 °F 63% 30.14 in 10.0 mi NNW 24.2 mph 32.2 mph N/A   Overcast
10:15 PM 19.9 °F 3.2 °F 9.5 °F 64% 30.15 in 10.0 mi NNW 23.0 mph - N/A   Overcast
10:35 PM 19.0 °F 2.0 °F 9.5 °F 66% 30.15 in 10.0 mi North 23.0 mph 26.5 mph N/A   Overcast
10:55 PM 17.6 °F 0.1 °F 8.6 °F 68% 30.15 in 10.0 mi North 23.0 mph - N/A   Overcast
11:15 PM 17.2 °F -1.5 °F 8.2 °F 68% 30.16 in 10.0 mi NNW 26.5 mph 31.1 mph N/A   Overcast
11:35 PM 16.7 °F -1.5 °F 8.4 °F 70% 30.17 in 10.0 mi North 24.2 mph 27.6 mph N/A   Overcast
11:55 PM 16.3 °F -3.6 °F 7.7 °F 69% 30.17 in 10.0 mi NNW 29.9 mph 35.7 mph N/A   Overcast